This is the latest recevied weather packets stored in our database for station/object CH73TE-13. If no packets are shown the sender has not sent any weather packets the latest 1 day(s).
| Time | Temp. | Humidity | Pressure | Rain* | Wind** | Luminosity | Snow |
|---|---|---|---|---|---|---|---|
| 1778154901 | 15.56° C | 63% | 969 hPa | 0.25 mm | - | 0 W/m² | - |
| 1778154540 | 15.56° C | 62% | 969 hPa | 0.25 mm | - | 0 W/m² | - |
| 1778154240 | 16.11° C | 63% | 969 hPa | 0.25 mm | - | 0 W/m² | - |
| 1778153941 | 16.11° C | 64% | 969 hPa | 0.25 mm | - | 0 W/m² | - |
| 1778153641 | 15.56° C | 66% | 969 hPa | 0.25 mm | - | 0 W/m² | - |
| 1778153341 | 14.44° C | 64% | 969 hPa | 0.25 mm | - | 0 W/m² | - |
| 1778153041 | 15° C | 66% | 969 hPa | 0.25 mm | - | 0 W/m² | - |
| 1778152740 | 15° C | 66% | 969 hPa | 0.25 mm | - | 0 W/m² | - |
| 1778152440 | 14.44° C | 66% | 969 hPa | 0.25 mm | - | 0 W/m² | - |
| 1778152080 | 14.44° C | 64% | 969 hPa | 0.25 mm | - | 0 W/m² | - |
| 1778151781 | 15° C | 66% | 969 hPa | 0.25 mm | - | 0 W/m² | - |
| 1778151481 | 15.56° C | 66% | 969 hPa | 0.25 mm | - | 0 W/m² | - |
| 1778151180 | 15° C | 66% | 969 hPa | 0.25 mm | - | 0 W/m² | - |
| 1778150880 | 15° C | 69% | 969 hPa | 0.25 mm | - | 0 W/m² | - |
| 1778150580 | 14.44° C | 69% | 969 hPa | 0.25 mm | - | 0 W/m² | - |
| 1778150281 | 14.44° C | 69% | 969 hPa | 0.25 mm | - | 0 W/m² | - |
| 1778149981 | 14.44° C | 70% | 969 hPa | 0.25 mm | - | 0 W/m² | - |
| 1778149681 | 13.89° C | 72% | 969 hPa | 0.25 mm | - | 0 W/m² | - |
| 1778149320 | 13.89° C | 72% | 969 hPa | 0.25 mm | - | 0 W/m² | - |
| 1778149020 | 13.89° C | 73% | 969 hPa | 0.25 mm | - | 0 W/m² | - |
| 1778148720 | 13.89° C | 76% | 969 hPa | 0.25 mm | - | 0 W/m² | - |
| 1778148421 | 13.33° C | 76% | 969 hPa | 0.25 mm | - | 0 W/m² | - |
| 1778148121 | 13.33° C | 75% | 969 hPa | 0.25 mm | - | 0 W/m² | - |
| 1778147821 | 13.89° C | 76% | 969 hPa | 0.25 mm | - | 0 W/m² | - |
| 1778147520 | 13.89° C | 76% | 969 hPa | 0.25 mm | - | 0 W/m² | - |
* Rain since midnight (hover to see other rain measurements)
** Current wind speed in m/s (hover to see current wind gust speed)